Theta_e
292 291 291 291 290 290 290 291 293 294 294 296 296 296 295 293 293 291 290 290 290 290 290 290 291 291 291 291 292 292 292 293 304 308 308 311 313 319
291 291 290 290 289 289 289 289 291 293 293 293 293 293 293 292 293 292 290 289 289 290 290 290 290 290 290 291 291 291 291 292 292 299 307 308 309 313
290 290 290 289 289 289 289 289 291 292 292 291 291 291 291 291 291 291 290 290 290 289 289 289 289 289 290 290 290 290 290 291 292 292 297 307 307 309
290 289 289 289 289 288 289 289 290 291 290 289 290 291 291 291 290 290 290 289 290 290 290 289 289 289 289 288 289 289 289 290 290 291 292 296 307 308
290 289 289 288 288 289 289 289 290 290 290 290 290 290 290 290 290 290 289 289 289 290 288 288 291 289 288 288 288 288 288 289 289 290 291 292 296 305
289 289 288 288 288 288 288 289 290 290 289 290 290 289 290 290 290 289 289 288 289 288 288 289 289 288 287 288 288 288 288 287 288 288 290 291 292 293
289 288 288 288 288 287 287 287 287 288 288 288 289 290 289 289 289 289 288 288 288 287 288 289 288 287 287 287 287 289 288 287 287 289 288 288 290 294
288 288 288 288 288 288 287 287 287 286 287 288 288 288 288 288 288 288 288 287 287 287 287 287 286 287 286 286 287 289 287 287 287 287 287 287 288 289
288 287 287 288 287 287 287 287 287 288 288 288 288 287 287 287 287 286 286 287 287 286 286 286 286 286 285 286 287 287 286 288 288 286 286 287 287 288
288 287 287 287 287 287 287 287 287 287 287 287 287 287 287 286 286 286 286 286 286 286 286 286 286 285 286 286 285 285 287 288 287 286 285 286 286 287
287 287 287 287 287 287 287 287 287 287 287 287 287 287 287 287 287 287 286 286 285 285 285 285 285 285 285 284 285 286 287 286 286 286 286 285 285 286
287 287 287 287 287 287 287 287 287 286 287 287 286 286 286 286 285 285 284 284 284 284 284 284 284 284 284 283 285 284 284 284 286 285 285 284 285 286
287 287 287 288 288 287 287 287 287 287 287 286 286 285 285 285 284 284 284 284 283 283 283 283 283 282 282 282 283 283 283 284 284 284 284 284 285 287
287 287 287 287 287 287 287 287 287 287 286 285 285 284 284 284 284 284 283 283 283 283 283 282 281 281 281 282 282 282 283 283 283 284 283 284 285 285
286 286 286 286 286 287 286 286 287 286 284 284 284 284 284 284 283 283 283 282 282 282 282 282 281 281 281 282 282 282 283 283 283 283 284 284 284 285
286 286 286 286 286 286 286 285 284 284 284 284 283 283 283 282 283 282 282 282 282 282 281 281 281 281 281 282 282 282 282 282 283 283 283 283 284 285
286 286 286 286 285 285 285 285 284 284 284 283 283 283 283 282 282 282 281 281 281 281 281 281 281 281 281 281 281 281 282 283 283 283 283 283 283 283
286 286 286 286 285 285 285 284 284 284 283 283 282 282 282 282 281 281 281 281 281 281 281 280 280 280 280 280 281 282 283 283 283 283 283 283 283 284
286 285 285 285 284 284 283 283 283 283 283 283 283 282 282 282 281 281 281 281 281 281 280 280 280 280 280 281 280 281 282 282 282 282 282 282 282 284
285 285 285 284 283 283 283 283 283 283 283 283 282 282 282 282 282 282 281 281 281 281 280 281 281 281 281 281 281 281 281 281 282 282 282 282 283 284
285 285 284 283 283 283 283 283 283 283 283 282 282 283 284 283 282 282 281 281 282 282 281 281 281 280 280 280 280 280 281 281 281 281 281 281 282 283
285 284 283 283 282 283 283 283 282 283 283 283 283 283 284 283 283 283 283 283 282 282 281 281 281 280 279 280 280 280 280 281 282 282 282 282 283 283
284 284 283 282 283 283 283 282 282 283 283 283 283 284 284 284 284 284 283 283 283 282 282 281 280 280 279 280 280 280 280 281 282 283 284 284 284 285
Wind_Speed
12 12 12 12 12 11 10 8 7 9 18 2 8 9 19 19 22 23 20 17 19 18 18 18 19 21 23 24 24 27 28 30 33 33 33 35 34 43
13 13 13 13 12 12 11 9 9 10 15 13 18 20 19 18 16 22 21 20 18 18 19 20 21 22 22 24 25 27 28 29 30 33 34 33 37 36
14 14 13 14 12 12 12 10 10 11 17 24 21 22 23 21 20 20 22 22 20 19 19 18 20 22 21 22 24 26 27 29 30 30 30 31 32 34
14 15 14 13 13 12 12 11 12 12 15 23 23 23 24 22 22 22 23 19 20 19 20 21 19 17 19 22 23 24 26 28 28 28 29 30 31 32
15 15 15 15 14 12 13 13 13 13 15 18 24 24 23 23 23 23 23 23 23 21 26 23 16 20 23 22 22 24 24 26 29 30 30 29 30 33
17 16 16 16 16 15 15 14 13 16 17 17 22 23 22 23 20 22 25 26 25 29 26 17 21 26 26 23 23 22 24 26 27 30 30 30 30 31
16 17 17 17 17 19 19 19 17 19 19 19 21 21 23 21 22 24 26 25 33 28 26 19 29 31 28 27 24 22 26 27 26 28 31 31 32 32
18 17 17 19 19 18 19 19 19 20 20 19 22 23 23 23 23 22 27 33 31 28 23 36 33 32 30 27 26 25 28 28 26 28 29 31 33 36
20 20 20 18 19 20 19 18 17 16 19 22 25 25 25 25 28 30 29 30 34 36 33 35 32 35 33 26 23 28 31 27 26 29 31 32 33 35
22 21 20 20 19 18 20 19 19 18 20 21 23 26 28 28 27 28 31 34 37 35 26 32 30 37 25 30 35 29 21 23 27 30 32 32 33 35
22 21 21 20 20 16 19 20 22 21 20 19 22 24 25 25 26 29 30 31 34 32 26 30 33 30 37 41 30 21 20 28 27 31 30 32 32 33
21 21 20 20 19 17 18 20 23 22 21 24 27 28 25 24 23 22 26 27 29 31 23 22 29 33 33 29 16 27 35 32 29 29 32 31 30 31
22 22 20 16 17 20 20 21 22 23 24 26 29 22 22 24 21 20 23 25 29 33 31 25 32 34 32 39 40 37 35 32 35 35 33 28 26 25
23 22 22 19 21 22 21 23 22 21 25 25 22 23 22 22 24 24 26 28 30 34 31 26 30 32 34 37 39 39 36 36 33 35 31 31 30 27
21 23 21 23 22 22 20 19 19 24 23 21 22 22 24 24 26 28 27 26 27 27 27 28 31 32 31 34 40 38 34 36 29 28 33 33 33 30
21 22 20 19 21 21 20 18 18 18 19 22 23 24 24 25 26 25 27 28 28 31 30 29 25 25 29 30 31 37 35 34 33 30 30 30 32 30
17 21 25 25 22 21 17 19 18 19 20 22 23 24 25 24 25 25 28 27 28 32 32 29 27 28 29 33 34 33 33 32 29 31 31 37 38 31
20 24 25 23 23 20 21 21 20 20 20 20 22 23 24 25 26 26 26 27 30 31 32 31 29 30 32 30 25 29 27 32 32 33 35 38 39 32
23 24 25 24 22 23 22 22 21 21 21 22 22 23 24 25 24 27 28 28 30 31 32 30 28 26 30 32 31 23 24 30 33 38 35 34 36 34
23 23 24 23 23 22 22 21 22 22 23 21 22 23 23 25 27 28 28 29 30 30 31 30 29 28 28 32 34 35 32 34 30 34 36 36 31 31
23 24 24 23 22 21 21 21 22 23 21 21 23 23 23 24 27 28 29 27 26 29 31 32 29 23 26 29 32 36 32 29 28 33 33 32 33 34
23 23 22 22 22 21 20 21 22 22 20 21 22 23 24 25 26 28 29 30 30 31 32 32 30 27 25 25 31 32 36 33 29 28 23 24 27 31
22 22 22 21 20 20 20 21 21 20 20 21 24 24 24 26 28 29 30 30 30 31 31 32 31 27 27 26 27 32 33 31 28 28 25 20 20 22
Wind_Direction
313 313 312 306 307 302 294 286 287 306 311 303 307 290 292 307 310 313 315 311 310 308 305 304 304 303 304 302 303 298 298 290 279 278 284 284 274 257
309 310 308 305 304 299 297 290 271 261 272 281 289 294 302 303 310 305 312 314 314 309 310 310 309 307 307 305 304 301 303 299 295 280 276 281 286 275
305 306 305 303 301 300 296 291 278 264 269 288 290 294 303 307 310 311 315 318 316 312 311 311 308 306 306 307 306 304 303 300 298 298 287 273 277 287
299 299 301 297 297 297 295 293 286 281 277 291 300 308 307 311 310 309 311 318 312 320 308 318 311 303 305 309 308 307 306 304 299 300 299 285 271 274
296 295 295 293 294 289 290 293 290 289 287 290 301 303 306 310 313 314 319 314 315 302 316 317 309 311 315 311 310 308 307 305 304 300 296 294 281 265
290 291 290 286 286 284 287 286 288 281 288 286 284 308 309 311 312 310 308 315 309 311 319 317 310 312 318 316 313 311 307 310 308 304 299 295 293 287
284 286 288 287 287 286 286 288 282 282 286 287 291 294 298 305 304 306 308 301 303 319 321 314 303 314 315 315 312 309 304 310 309 302 305 301 295 292
288 287 285 289 292 289 291 288 286 286 288 283 285 291 293 295 300 301 294 306 310 312 304 303 310 310 311 313 307 304 307 308 306 306 308 305 302 295
286 284 286 285 282 291 291 289 291 290 283 288 290 293 291 287 293 299 301 300 297 299 303 302 304 305 308 307 303 300 306 303 301 305 307 305 303 298
285 284 284 285 284 282 286 289 290 282 279 276 276 282 288 292 294 295 295 293 294 297 299 293 298 301 304 295 304 308 303 298 305 309 309 306 304 299
285 283 283 283 281 278 281 287 290 291 295 292 287 288 291 292 290 291 290 293 293 295 296 291 295 292 293 303 309 306 294 300 305 310 310 310 307 300
285 285 284 285 284 279 279 287 288 292 293 291 291 295 292 286 286 283 289 290 293 295 299 291 289 294 304 303 296 291 305 309 307 309 312 314 307 301
279 282 285 280 274 277 280 284 286 294 292 288 291 293 285 288 292 285 280 281 285 286 293 292 291 289 286 290 296 299 306 308 308 312 316 314 311 306
278 283 282 276 273 282 281 280 282 284 284 292 290 286 290 291 294 293 290 286 284 286 297 298 293 291 290 292 293 302 306 307 311 310 314 314 310 307
281 281 278 280 283 281 281 283 283 281 286 285 286 286 289 294 292 295 298 302 302 299 297 296 295 292 287 283 288 297 303 304 307 311 314 313 311 315
282 283 286 289 287 284 287 286 288 287 288 287 287 292 294 297 298 301 299 302 299 295 294 297 297 296 291 287 288 292 296 292 305 309 315 314 311 304
286 286 285 292 293 292 289 283 284 287 285 285 286 289 290 290 291 293 294 298 294 295 301 302 298 292 284 283 281 284 298 302 303 306 310 314 312 306
274 277 284 286 283 281 276 279 280 281 282 282 284 287 289 293 297 297 295 295 294 294 293 296 300 297 297 295 278 285 294 300 300 301 305 307 308 306
271 276 277 279 278 278 280 283 286 288 287 290 295 296 296 298 297 297 297 296 294 296 297 298 297 296 293 290 297 293 284 292 298 300 302 306 304 301
277 275 276 277 278 278 279 280 285 289 293 294 294 298 304 304 300 298 298 294 293 295 297 300 298 297 288 288 294 290 284 290 296 300 303 304 297 299
278 276 278 281 279 277 277 283 287 293 295 297 296 300 304 304 304 302 299 292 288 288 289 292 299 294 286 289 289 290 297 292 288 290 296 296 298 305
277 278 281 281 278 277 282 286 290 293 297 301 304 306 306 306 303 303 301 299 298 295 294 298 301 299 294 287 289 291 294 303 305 304 295 284 285 282
279 280 282 280 279 283 286 289 292 295 300 305 306 305 307 307 309 306 303 300 298 296 296 298 300 297 292 291 288 289 293 302 309 311 308 308 300 289